UTC;BAR
2022-01-10 12:00:00;1011
2022-01-10 13:00:00;1011.1
2022-01-10 14:00:00;1011.7
2022-01-10 15:00:00;1012.3
2022-01-10 16:00:00;1012.9
2022-01-10 17:00:00;1013.7
2022-01-10 18:00:00;1014.7
2022-01-10 19:00:00;1015.6
2022-01-10 20:00:00;1016.1
2022-01-10 21:00:00;1016.5
2022-01-10 22:00:00;1017.1
2022-01-10 23:00:00;1017.5
2022-01-11 00:00:00;1017.9
2022-01-11 01:00:00;1018.3
2022-01-11 02:00:00;1018.8
2022-01-11 03:00:00;1019.2
2022-01-11 04:00:00;1019.6
2022-01-11 05:00:00;1019.7
2022-01-11 06:00:00;1020.4
2022-01-11 07:00:00;1020.9
2022-01-11 08:00:00;1021.8
2022-01-11 09:00:00;1022.5
2022-01-11 10:00:00;1022.8
2022-01-11 11:00:00;1022.8
2022-01-11 12:00:00;1022.9
2022-01-11 13:00:00;1022.5
2022-01-12 08:00:00;1030
2022-01-12 09:00:00;1030.6
2022-01-12 10:00:00;1031.1
2022-01-12 11:00:00;1031.1
2022-01-12 12:00:00;1031.1
2022-01-12 13:00:00;1031.1
2022-01-12 14:00:00;1031
2022-01-12 15:00:00;1031.2
2022-01-12 16:00:00;1031.4
2022-01-12 17:00:00;1031.8
2022-01-12 18:00:00;1032.3
2022-01-12 19:00:00;1032.7
2022-01-12 20:00:00;1033.1
2022-01-12 21:00:00;1033.5
2022-01-12 22:00:00;1034.2
2022-01-12 23:00:00;1034.2
2022-01-13 00:00:00;1034.2
2022-01-13 01:00:00;1034.7
2022-01-13 02:00:00;1035.2
2022-01-13 03:00:00;1035
2022-01-13 04:00:00;1035.2
2022-01-13 05:00:00;1035.6
2022-01-13 06:00:00;1036
2022-01-13 07:00:00;1036.6
2022-01-13 08:00:00;1037.1
2022-01-13 09:00:00;1037.8
2022-01-13 10:00:00;1038
2022-01-13 11:00:00;1037.9
2022-01-13 12:00:00;1037.9
2022-01-13 13:00:00;1037.4
2022-01-13 14:00:00;1036.9
2022-01-13 15:00:00;1036.8
2022-01-13 16:00:00;1037.2
2022-01-13 17:00:00;1037.3
2022-01-13 18:00:00;1037.2
2022-01-13 19:00:00;1037.4
2022-01-13 20:00:00;1037.5
2022-01-13 21:00:00;1037.5
2022-01-13 22:00:00;1037.4
2022-01-13 23:00:00;1037.1
2022-01-14 00:00:00;1036.4
2022-01-14 01:00:00;1036.2
2022-01-14 02:00:00;1035.8
2022-01-14 03:00:00;1035.2
2022-01-14 04:00:00;1034.5
2022-01-14 05:00:00;1033.9
2022-01-14 06:00:00;1033.6
2022-01-14 07:00:00;1033.4
2022-01-14 08:00:00;1033
2022-01-14 09:00:00;1032.8
2022-01-14 10:00:00;1032.1
2022-01-14 11:00:00;1031.5
2022-01-14 12:00:00;1030.4
2022-01-14 13:00:00;1029.3
2022-01-14 14:00:00;1028.9
2022-01-14 15:00:00;1028.2
2022-01-14 16:00:00;1027.7
2022-01-14 17:00:00;1027.7
2022-01-14 18:00:00;1027.9
2022-01-14 19:00:00;1027.8
2022-01-14 20:00:00;1027.5
2022-01-14 21:00:00;1027.2
2022-01-14 22:00:00;1027.3
2022-01-14 23:00:00;1026.7
2022-01-15 00:00:00;1026.3
2022-01-15 01:00:00;1025.7
2022-01-15 02:00:00;1025
2022-01-15 03:00:00;1024.7
2022-01-15 04:00:00;1024.9
2022-01-15 05:00:00;1024.8
2022-01-15 06:00:00;1025.2
2022-01-15 07:00:00;1025.7
2022-01-15 08:00:00;1025.8
2022-01-15 09:00:00;1025.8
2022-01-15 10:00:00;1025.9
2022-01-15 11:00:00;1025.8
2022-01-15 12:00:00;1025.3
2022-01-15 13:00:00;1024.8
2022-01-15 14:00:00;1024.6
2022-01-15 15:00:00;1024.4
2022-01-15 16:00:00;1024.7
2022-01-15 17:00:00;1024.6
2022-01-15 18:00:00;1024.6
2022-01-15 19:00:00;1024.8
2022-01-15 20:00:00;1026.1
2022-01-15 21:00:00;1025
2022-01-15 22:00:00;1025
2022-01-15 23:00:00;1025.4
2022-01-16 00:00:00;1025.2
2022-01-16 01:00:00;1024.6
2022-01-16 02:00:00;1025.6
2022-01-16 03:00:00;1024.6
2022-01-16 04:00:00;1025.1
2022-01-16 05:00:00;1024.4
2022-01-16 06:00:00;1024.7
2022-01-16 07:00:00;1025
2022-01-16 08:00:00;1025.2
2022-01-16 09:00:00;1025.2
2022-01-16 10:00:00;1025.2
2022-01-16 11:00:00;1024.7
2022-01-16 12:00:00;1024.2
2022-01-16 13:00:00;1023.6
2022-01-16 14:00:00;1023
2022-01-16 15:00:00;1022.9
2022-01-16 16:00:00;1022.9
2022-01-16 17:00:00;1023.5
2022-01-16 18:00:00;1023.8
2022-01-16 19:00:00;1024.2
2022-01-16 20:00:00;1024.7
2022-01-16 21:00:00;1025.1
2022-01-16 22:00:00;1025.2
2022-01-16 23:00:00;1025.3
2022-01-17 00:00:00;1025.5
2022-01-17 01:00:00;1025.5
2022-01-17 02:00:00;1026.3
2022-01-17 03:00:00;1025.8
2022-01-17 04:00:00;1025.8
2022-01-17 05:00:00;1025.9
2022-01-17 06:00:00;1026.2
2022-01-17 07:00:00;1026.7
2022-01-17 08:00:00;1027.5
2022-01-17 09:00:00;1027.3
2022-01-17 10:00:00;1027.8
2022-01-17 11:00:00;1027.3
2022-01-17 12:00:00;1026.8
2022-01-17 13:00:00;1026
2022-01-17 14:00:00;1024.6
2022-01-17 15:00:00;1024.4
2022-01-17 16:00:00;1023.9
2022-01-17 17:00:00;1023.7
2022-01-17 18:00:00;1024.1
2022-01-17 19:00:00;1023.8
2022-01-17 20:00:00;1024.5
2022-01-17 21:00:00;1025.1
2022-01-17 22:00:00;1025.3
2022-01-17 23:00:00;1026.1
2022-01-18 00:00:00;1026.6
2022-01-18 01:00:00;1027
2022-01-18 02:00:00;1028
2022-01-18 03:00:00;1027.8
2022-01-18 04:00:00;1028.7
2022-01-18 05:00:00;1029.7
2022-01-18 06:00:00;1030.4
2022-01-18 07:00:00;1031.1
2022-01-18 08:00:00;1032
2022-01-18 09:00:00;1032.7
2022-01-18 10:00:00;1033.4
2022-01-18 11:00:00;1033.5
2022-01-18 12:00:00;1033.6
2022-01-18 13:00:00;1033.4
2022-01-18 14:00:00;1033.4
2022-01-18 15:00:00;1033.6
2022-01-18 16:00:00;1033.8
2022-01-18 17:00:00;1034.2
2022-01-18 18:00:00;1034.6
2022-01-18 19:00:00;1034.7
2022-01-18 20:00:00;1035.2
2022-01-18 21:00:00;1035.2
2022-01-18 22:00:00;1035.4
2022-01-18 23:00:00;1035.3
2022-01-19 00:00:00;1035.3
2022-01-19 01:00:00;1035.3
2022-01-19 02:00:00;1035
2022-01-19 03:00:00;1034.3
2022-01-19 04:00:00;1034
2022-01-19 05:00:00;1033.7
2022-01-19 06:00:00;1033.4
2022-01-19 07:00:00;1033.2
2022-01-19 08:00:00;1033.2
2022-01-19 09:00:00;1033.1
2022-01-19 10:00:00;1033.1
2022-01-19 11:00:00;1032.1
2022-01-19 12:00:00;1031.1
2022-01-19 13:00:00;1029.8
2022-01-19 14:00:00;1029.1
2022-01-19 15:00:00;1028.4
2022-01-19 16:00:00;1027.7
2022-01-19 17:00:00;1027.8
2022-01-19 18:00:00;1027.3
2022-01-19 19:00:00;1026.9
2022-01-19 20:00:00;1026.5
2022-01-19 21:00:00;1026.1
2022-01-19 22:00:00;1025.6
2022-01-19 23:00:00;1025.2
2022-01-20 00:00:00;1024.5
2022-01-20 01:00:00;1024.1
2022-01-20 02:00:00;1023.4
2022-01-20 03:00:00;1022.5
2022-01-20 04:00:00;1022.2
2022-01-20 05:00:00;1021.4
2022-01-20 06:00:00;1021.7
2022-01-20 07:00:00;1021.8
2022-01-20 08:00:00;1022.2
2022-01-20 09:00:00;1022.6
2022-01-20 10:00:00;1022.6
2022-01-20 11:00:00;1021.6
2022-01-20 12:00:00;1021.2
2022-01-20 13:00:00;1020.4
2022-01-20 14:00:00;1019.7
2022-01-20 15:00:00;1019.4
2022-01-20 16:00:00;1019.1
2022-01-20 17:00:00;1019.1
2022-01-20 18:00:00;1019.5
2022-01-20 19:00:00;1019.8
2022-01-20 20:00:00;1019.5
2022-01-20 21:00:00;1019.6
2022-01-20 22:00:00;1019.9
2022-01-20 23:00:00;1020.1
2022-01-21 00:00:00;1019.9
2022-01-21 01:00:00;1019.9
2022-01-21 02:00:00;1019.9
2022-01-21 03:00:00;1019.9
2022-01-21 04:00:00;1020
2022-01-21 05:00:00;1020.7
2022-01-21 06:00:00;1021.3
2022-01-21 07:00:00;1022.3
2022-01-21 08:00:00;1023.2
2022-01-21 09:00:00;1024.1
2022-01-21 10:00:00;1025
2022-01-21 11:00:00;1025.1
2022-01-21 12:00:00;1025
2022-01-21 13:00:00;1024.7
2022-01-21 14:00:00;1024.9
2022-01-21 15:00:00;1025.1
2022-01-21 16:00:00;1025.1
2022-01-21 17:00:00;1025.4
2022-01-21 18:00:00;1026.1
2022-01-21 19:00:00;1026.5
2022-01-21 20:00:00;1027.1
2022-01-21 21:00:00;1027.8
2022-01-21 22:00:00;1027.9
2022-01-21 23:00:00;1028.2
2022-01-22 00:00:00;1027.9
2022-01-22 01:00:00;1027.7
2022-01-22 02:00:00;1027.6
2022-01-22 03:00:00;1027.3
2022-01-22 04:00:00;1027.2
2022-01-22 05:00:00;1027.1
2022-01-22 06:00:00;1026.8
2022-01-22 07:00:00;1026.4
2022-01-22 08:00:00;1026.4
2022-01-22 09:00:00;1026.3
2022-01-22 10:00:00;1026.6
2022-01-22 11:00:00;1025.9
2022-01-22 12:00:00;1025.1
2022-01-22 13:00:00;1024.6
2022-01-22 14:00:00;1024.4
2022-01-22 15:00:00;1024.4
2022-01-22 16:00:00;1025
2022-01-22 17:00:00;1025.8
2022-01-22 18:00:00;1026.5
2022-01-22 19:00:00;1027.3
2022-01-22 20:00:00;1027.8
2022-01-22 21:00:00;1028.7
2022-01-22 22:00:00;1028.7
2022-01-22 23:00:00;1029
2022-01-23 00:00:00;1028.9
2022-01-23 01:00:00;1029
2022-01-23 02:00:00;1029.2
2022-01-23 03:00:00;1028.7
2022-01-23 04:00:00;1028.8
2022-01-23 05:00:00;1029.1
2022-01-23 06:00:00;1029.2
2022-01-23 07:00:00;1030
2022-01-23 08:00:00;1030.3
2022-01-23 09:00:00;1030.6
2022-01-23 10:00:00;1031.4
2022-01-23 11:00:00;1031
2022-01-23 12:00:00;1030.5
2022-01-23 13:00:00;1030.2
2022-01-23 14:00:00;1029.6
2022-01-23 15:00:00;1029.6
2022-01-23 16:00:00;1029.4
2022-01-23 17:00:00;1029.6
2022-01-23 18:00:00;1030.1
2022-01-23 19:00:00;1030.5
2022-01-23 20:00:00;1030.7
2022-01-23 21:00:00;1031
2022-01-23 22:00:00;1031.3
2022-01-23 23:00:00;1031.1
2022-01-24 00:00:00;1031.2
2022-01-24 01:00:00;1031.6
2022-01-24 02:00:00;1031.4
2022-01-24 03:00:00;1031.3
2022-01-24 04:00:00;1031.2
2022-01-24 05:00:00;1031.3
2022-01-24 06:00:00;1031.3
2022-01-24 07:00:00;1031.6
2022-01-24 08:00:00;1031.9
2022-01-24 09:00:00;1032.1
2022-01-24 10:00:00;1032.8
2022-01-24 11:00:00;1032.9
2022-01-24 12:00:00;1032.6
2022-01-24 13:00:00;1032.5
2022-01-24 14:00:00;1032.7
2022-01-24 15:00:00;1032.7
2022-01-24 16:00:00;1033
2022-01-24 17:00:00;1033.5
2022-01-24 18:00:00;1033.9
2022-01-24 19:00:00;1034.2
2022-01-24 20:00:00;1034.5
2022-01-24 21:00:00;1035
2022-01-24 22:00:00;1035
2022-01-24 23:00:00;1035.2
2022-01-25 00:00:00;1035.2
2022-01-25 01:00:00;1035.4
2022-01-25 02:00:00;1035.4
2022-01-25 03:00:00;1035.2
2022-01-25 04:00:00;1034.9
2022-01-25 05:00:00;1034.5
2022-01-25 06:00:00;1034.4
2022-01-25 07:00:00;1034.5
2022-01-25 08:00:00;1034.9
2022-01-25 09:00:00;1034.9
2022-01-25 10:00:00;1035
2022-01-25 11:00:00;1034.1
2022-01-25 12:00:00;1033.4
2022-01-25 13:00:00;1032.6
2022-01-25 14:00:00;1032
2022-01-25 15:00:00;1031.7
2022-01-25 16:00:00;1031.6
2022-01-25 17:00:00;1031.7
2022-01-25 18:00:00;1031.7
2022-01-25 19:00:00;1032.1
2022-01-25 20:00:00;1031.9
2022-01-25 21:00:00;1031.9
2022-01-25 22:00:00;1031.6
2022-01-25 23:00:00;1031.2
2022-01-26 00:00:00;1031
2022-01-26 01:00:00;1030.7
2022-01-26 02:00:00;1030.5
2022-01-26 03:00:00;1030
2022-01-26 04:00:00;1029.9
2022-01-26 05:00:00;1029.5
2022-01-26 06:00:00;1029.4
2022-01-26 07:00:00;1029.5
2022-01-26 08:00:00;1029.9
2022-01-26 09:00:00;1029.8
2022-01-26 10:00:00;1030
2022-01-26 11:00:00;1029.3
2022-01-26 12:00:00;1028.9
2022-01-26 13:00:00;1028.1
2022-01-26 14:00:00;1028
2022-01-26 15:00:00;1028.1
2022-01-26 16:00:00;1027.9
2022-01-26 17:00:00;1028.1
2022-01-26 18:00:00;1027.9
2022-01-26 19:00:00;1028.2
2022-01-26 20:00:00;1028.4
2022-01-26 21:00:00;1028.5
2022-01-26 22:00:00;1028.4
2022-01-26 23:00:00;1028.5
2022-01-27 00:00:00;1028
2022-01-27 01:00:00;1027.7
2022-01-27 02:00:00;1027.1
2022-01-27 03:00:00;1027.2
2022-01-27 04:00:00;1027.2
2022-01-27 05:00:00;1027.1
2022-01-27 06:00:00;1027.6
2022-01-27 07:00:00;1027.9
2022-01-27 08:00:00;1028
2022-01-27 09:00:00;1028.5
2022-01-27 10:00:00;1028.5
2022-01-27 11:00:00;1028.1
2022-01-27 12:00:00;1027.6
2022-01-27 13:00:00;1026.9
2022-01-27 14:00:00;1026.5
2022-01-27 15:00:00;1026.5
2022-01-27 16:00:00;1026
2022-01-27 17:00:00;1026
2022-01-27 18:00:00;1025.6
2022-01-27 19:00:00;1025.7
2022-01-27 20:00:00;1025.6
2022-01-27 21:00:00;1025.5
2022-01-27 22:00:00;1025.8
2022-01-27 23:00:00;1025.8
2022-01-28 00:00:00;1025.3
2022-01-28 01:00:00;1025.5
2022-01-28 02:00:00;1024.8
2022-01-28 03:00:00;1024.2
2022-01-28 04:00:00;1023.4
2022-01-28 05:00:00;1023.5
2022-01-28 06:00:00;1023.8
2022-01-28 07:00:00;1024.8
2022-01-28 08:00:00;1025.8
2022-01-28 09:00:00;1026.8
2022-01-28 10:00:00;1028
2022-01-28 11:00:00;1028
2022-01-28 12:00:00;1027.4
2022-01-28 13:00:00;1026.8
2022-01-28 14:00:00;1026.7
2022-01-28 15:00:00;1026.7
2022-01-28 16:00:00;1026.6
2022-01-28 17:00:00;1027.5
2022-01-28 18:00:00;1027.9
2022-01-28 19:00:00;1028.8
2022-01-28 20:00:00;1029.4
2022-01-28 21:00:00;1030
2022-01-28 22:00:00;1030.1
2022-01-28 23:00:00;1030.3
2022-01-29 00:00:00;1030.4
2022-01-29 01:00:00;1030.4
2022-01-29 02:00:00;1030.6
2022-01-29 03:00:00;1030.1
2022-01-29 04:00:00;1030.6
2022-01-29 05:00:00;1030.6
2022-01-29 06:00:00;1031
2022-01-29 07:00:00;1031.4
2022-01-29 08:00:00;1031.7
2022-01-29 09:00:00;1032
2022-01-29 10:00:00;1031.8
2022-01-29 11:00:00;1031
2022-01-29 12:00:00;1030.1
2022-01-29 13:00:00;1029
2022-01-29 14:00:00;1028.2
2022-01-29 15:00:00;1027.6
2022-01-29 16:00:00;1027
2022-01-29 17:00:00;1026.4
2022-01-29 18:00:00;1026.1
2022-01-29 19:00:00;1026.2
2022-01-29 20:00:00;1025.8
2022-01-29 21:00:00;1025.7
2022-01-29 22:00:00;1025.2
2022-01-29 23:00:00;1024.8
2022-01-30 00:00:00;1023.7
2022-01-30 01:00:00;1023
2022-01-30 02:00:00;1022.1
2022-01-30 03:00:00;1021
2022-01-30 04:00:00;1020.4
2022-01-30 05:00:00;1020.4
2022-01-30 06:00:00;1020
2022-01-30 07:00:00;1019.6
2022-01-30 08:00:00;1019.8
2022-01-30 09:00:00;1019.9
2022-01-30 10:00:00;1019.9
2022-01-30 11:00:00;1019.7
2022-01-30 12:00:00;1018.9
2022-01-30 13:00:00;1018.1
2022-01-30 14:00:00;1018
2022-01-30 15:00:00;1018
2022-01-30 16:00:00;1018
2022-01-30 17:00:00;1018.5
2022-01-30 18:00:00;1019.1
2022-01-30 19:00:00;1019.4
2022-01-30 20:00:00;1019.4
2022-01-30 21:00:00;1019.5
2022-01-30 22:00:00;1019.6
2022-01-30 23:00:00;1019.2
2022-01-31 00:00:00;1018.7
2022-01-31 01:00:00;1018.3
2022-01-31 02:00:00;1017.4
2022-01-31 03:00:00;1016.4
2022-01-31 04:00:00;1015.5
2022-01-31 05:00:00;1014.9
2022-01-31 06:00:00;1013.9
2022-01-31 07:00:00;1013.1
2022-01-31 08:00:00;1011.8
2022-01-31 09:00:00;1011.3
2022-01-31 10:00:00;1009.8
2022-01-31 11:00:00;1008.7
2022-01-31 12:00:00;1007.5
2022-01-31 13:00:00;1006.2
2022-01-31 14:00:00;1005.3
2022-01-31 15:00:00;1004.6
2022-01-31 16:00:00;1004.7
2022-01-31 17:00:00;1005.8
2022-01-31 18:00:00;1006.6
2022-01-31 19:00:00;1007
2022-01-31 20:00:00;1006.6
2022-01-31 21:00:00;1007.3
2022-01-31 22:00:00;1007.7
2022-01-31 23:00:00;1008.4
